DELTA 1 R/B, 2436

Orbit data source: Space-Track

DELTA 1 R/B, 2436 is space debris in SSO originally from a launch on Sun, 02 Oct 1966 UTC launched from the Air Force Western Test Range (AFWTR). Debris objects in space refer to the collection of defunct objects orbiting the Earth. Examples of debris include non-operational satellites, rocket bodies, and fragments generated from explosions, collisions, or faulty payload assembly.

Loading next visibility...
Identifier
2436, 1966-087B
Orbit
SSO
Last TLE update
11 hours ago
Origin
Manufacturer
ABL
Mission
Spacecraft
Bus & Motor
ALTAIR, Unknown motor
Mass
33 kg wet, 33 kg dry
Launch date (UTC)
1966-10-02 (59 years ago)
Launch vehicle
Unknown
Launch site
Air Force Western Test Range (AFWTR)
Object type
Payload
Rocket body
Debris
Shape & HBR
Cyl, 1.5 m
Radar Cross Section
0.687 m², Medium (>0.1 m² and < 1m²)

Expand to show TLE details & history

TLE from 11 hours ago
0 DELTA 1 R/B
1  2436U 66087B   25128.90372573 -.00000014  00000-0  15503-3 0  9999
2  2436 100.9856 103.0444 0065861 118.0198 242.7562 12.57656919689660
Epoch: 2025-05-08T21:41Z
Definitive object data (Epoch: 2025-05-08T21:41:21.903Z)
Latitude
-0°
Longitude
-89.2644°
Altitude
1,459.063 km
Speed
7.122 km/s
True Right ascension
06h 52m 10s
True Declination
0° 00' 00"
Sunlit
Object was in daylight at TLE epoch
Visualization TLE readout
Latitude
-26.42871°
Longitude
85.63974°
Altitude
1,441.523 km
Speed
7.14 km/s
Apparent Right ascension
21h 19m 17s
Apparent Declination
-63° 29' 04"
Sunlit
Object is in full shadow
Visualization observer readout
Local Sidereal Time
16:28:33
Azimuth
151.084° SSE
Elevation
-28.181°
Doppler factor
1
Orbital elements
Apogee altitude
1,481.55 km
Perigee altitude
1,378.698 km
Semi-major axis
7,808.261 km
Eccentricity
0.0065861
Inclination
100.9856°
RAAN
103.0444°
Arg. of periapsis
118.0198°
True anomaly
242.08775°
Mean anomaly
242.7562°
Eccentric anomaly
242.42172°
Mean motion
3.14566 °/min
BSTAR
0.00015503
Orbital period
114.44 mins
Loading maneuver chart data...
Loading SW <> Apogee altitude chart data...
Loading historical data...
Loading historical data...
Loading historical data...
Loading historical data...
Loading historical data...
Loading historical data...
Loading historical data...
Other satellites on launch #87 in the year 1966 (1966-10-02 UTC)

DELTA 1 R/B Visibility forecast

Observer location: undefined°, undefined°

Span
Click to sort rows by Start time (UTC) header in descending order
Start Az.
Max El. time (UTC)
Max El. Az.
Max El.
End time (UTC)
End Az.
12 mins2025-05-09 09:47:24.378Z41.641° NE2025-05-09 09:53:24.378Z91.545° ESE23.033°2025-05-09 09:59:24.378Z143.924° SSE
14 mins2025-05-09 11:40:24.378Z8.361° NNE2025-05-09 11:46:24.378Z301.87° NW42.249°2025-05-09 11:54:24.378Z212.299° SW
5 mins2025-05-09 13:35:24.378Z329.727° NNW2025-05-09 13:37:24.378Z313.877° NW13.426°2025-05-09 13:40:24.378Z290.232° WNW
12 mins2025-05-09 20:45:24.378Z111.871° ESE2025-05-09 20:50:24.378Z65.164° ENE28.393°2025-05-09 20:57:24.378Z1.95° NNE
14 mins2025-05-09 22:36:24.378Z184.116° SSW2025-05-09 22:43:24.378Z271.028° WNW39.512°2025-05-09 22:50:24.378Z334.435° NNW
|